sat.trackr.live / text

‹ back to catalog

RISAT-2BR2

NORAD 46905 · 2020-081A

PAYLOAD ACTIVE UNKNOWN

§ Identity

Operator
Country
IND
Launch date
2020-11-07
Launch site
SRILR
Launch vehicle
Mass (kg)
RCS (m²)

External: N2YO · Heavens-Above · Gunter

§ Orbital elements

Epoch: 2026-09-19T19:02:51.071424Z

Period
95.94 min
Inclination
36.8996°
Eccentricity
0.0015118
Mean motion
15.00916810 rev/d
Perigee alt
553.6 km
Apogee alt
574.6 km
Semi-major
6,942.2 km
B*
1.8594e-5
RAAN
22.7736°
Arg perigee
203.9493°
Mean anomaly
156.0546°
Rev number
32,169

§ Raw data

RISAT-2BR21 46905U 20081A   26262.79364666  .00000162  00000+0  18594-4 0  99992 46905  36.8996  22.7736 0015118 203.9493 156.0546 15.00916810321699

JSON: /api/v1/satellites/46905 · /tle

For live sub-satellite position, see the globe view (requires WebGL).

§ Visibility from observer

Set your observer location to see the next 7 days of passes ≥ 10°. The values pass through the URL so the page stays shareable.

No JS? Fill the form by hand. The geolocation button needs JavaScript.

§ Radio — SatNOGS DB

ModeDescriptionDownlinkUplink
FM S-band telemetry 2.250 GHz

1 transmitter · refreshed weekly from db.satnogs.org